EHI
0 0 0 0 0 0 0 0 0 0 0 0 0 0 0 0 0 0 0 0 0 0 0 0 0 0 0 0 0 0 0 0 0 0 0 0 0 0 0 0 0 0 0
0 0 0 0 0 0 0 0 0 0 0 0 0 0 0 0 0 0 0 0 0 0 0 0 0 0 0 0 0 0 0 0 0 0 0 0 0 0 0 0 0 0 0
0 0 0 0 0 0 0 0 0 0 0 0 0 0 0 0 0 0 0 0 0 0 0 0 0 0 0 0 0 0 0 0 0 0 0 0 0 0 0 0 0 0 0
0 0 0 0 0 0 0 0 0 0 0 0 0 0 0 0 0 0 0 0 0 0 0 0 0 0 0 0 0 0 0 0 0 0 0 0 0 0 0 0 0 0 0
0 0 0 0 0 0 0 0 0 0 0 0 0 0 0 0 0 0 0 0 0 0 0 0 0 0 0 0 0 0 0 0 0 0 0 0 0 0 0 0 0 0 0
0 0 0 0 0 0 0 0 0 0 0 0 0 0 0 0 0 0 0 0 0 0 0 0 0 0 0 0 0 0 0 0 0 0 0 0 0 0 0 0 0 0 0
0 0 0 0 0 0 0 0 0 0 0 0 0 0 0 0 0 0 0 0 0 0 0 0 0 0 0 0 0 0 0 0 0 0 0 0 0 0 0 0 0 0 0
0 0 0 0 0 0 0 0 0 0 0 0 0 0 0 0 0 0 0 0 0 0 0 0 0 0 0 0 0 0 0 0 0 0 0 0 0 0 0 0 0 0 0
0 0 0 0 0 0 0 0 0 0 0 0 0 0 0 0 0 0 0 0 0 0 0 0 0 0 0 0 0 0 0 0 0 0 0 0 0 0 0 0 0 0 0
0 0 0 0 0 0 0 0 0 0 0 0 0 0 0 0 0 0 0 0 0 0 0 0 0 0 0 0 0 0 0 0 0 0 0 0 0 0 0 0 0 0 0
0 0 0 0 0 0 0 0 0 0 0 0 0 0 0 0 0 0 0 0 0 0 0 0 0 0 0 0 0 0 0 0 0 0 0 0 0 0 0 0 0 0 0
0 0 0 0 0 0 0 0 0 0 0 0 0 0 0 0 0 0 0 0 0 0 0 0 0 0 0 0 0 0 0 0 0 0 0 0 0 0 0 0 0 0 0
0 0 0 0 0 0 0 0 0 0 0 0 0 0 0 0 0 0 0 0 0 0 0 0 0 0 0 0 0 0 0 0 0 0 0 0 0 0 0 0 0 0 0
0 0 0 0 0 0 0 0 0 0 0 0 0 0 0 0 0 0 0 0 0 0 0 0 0 0 0 0 0 0 0 0 0 0 0 0 0 0 0 0 0 0 0
0 0 0 0 0 0 0 0 0 0 0 0 0 0 0 0 0 0 0 0 0 0 0 0 0 0 0 0 0 0 0 0 0 0 0 0 0 0 0 0 0 0 0
0 0 0 0 0 0 0 0 0 0 0 0 0 0 0 0 0 0 0 0 0 0 0 0 0 0 0 0 0 0 0 0 0 0 0 0 0 0 0 0 0 0 0
0 0 0 0 0 0 0 0 0 0 0 0 0 0 0 0 0 0 0 0 0 0 0 0 0 0 0 0 0 0 0 0 0 0 0 0 0 0 0 0 0 0 0
0 0 0 0 0 0 0 0 0 0 0 0 0 0 0 0 0 0 0 0 0 0 0 0 0 0 0 0 0 0 0 0 0 0 0 0 0 0 0 0 0 0 0
0 0 0 0 0 0 0 0 0 0 0 0 0 0 0 0 0 0 0 0 0 0 0 0 0 0 0 0 0 0 0 0 0 0 0 0 0 0 0 0 0 0 0
0 0 0 0 0 0 0 0 0 0 0 0 0 0 0 0 0 0 0 0 0 0 0 0 0 0 0 0 0 0 0 0 0 0 0 0 0 0 0 0 0 0 0
0 0 0 0 0 0 0 0 0 0 0 0 0 0 0 0 0 0 0 0 0 0 0 0 0 0 0 0 0 0 0 0 0 0 0 0 0 0 0 0 0 0 0
0 0 0 0 0 0 0 0 0 0 0 0 0 0 0 0 0 0 0 0 0 0 0 0 0 0 0 0 0 0 0 0 0 0 0 0 0 0 0 0 0 0 0
0 0 0 0 0 0 0 0 0 0 0 0 0 0 0 0 0 0 0 0 0 0 0 0 0 0 0 0 0 0 0 0 0 0 0 0 0 0 0 0 0 0 0
0 0 0 0 0 0 0 0 0 0 0 0 0 0 0 0 0 0 0 0 0 0 0 0 0 0 0 0 0 0 0 0 0 0 0 0 0 0 0 0 0 0 0
0 0 0 0 0 0 0 0 0 0 0 0 0 0 0 0 0 0 0 0 0 0 0 0 0 0 0 0 0 0 0 0 0 0 0 0 0 0 0 0 0 0 0
0 0 0 0 0 0 0 0 0 0 0 0 0 0 0 0 0 0 0 0 0 0 0 0 0 0 0 0 0 0 0 0 0 0 0 0 0 0 0 0 0 0 0
Wind_Speed
13 13 14 14 13 14 15 16 16 14 12 10 10 9 8 7 6 6 8 9 8 9 7 5 6 5 4 5 5 3 3 2 2 1 1 2 3 3 3 2 2 2 3
13 14 14 14 14 15 16 16 17 16 14 11 10 8 7 6 6 5 7 8 9 9 8 7 6 6 5 6 5 4 3 2 3 3 1 1 2 2 3 2 3 3 3
13 13 14 15 14 15 16 15 17 16 15 12 9 7 6 5 6 8 7 8 9 9 9 9 7 7 6 5 6 5 5 4 3 3 3 2 3 2 2 3 3 3 3
12 13 14 15 15 15 15 15 16 16 16 15 13 13 11 10 10 8 7 8 9 9 10 9 8 8 6 6 6 6 5 5 3 2 2 3 3 2 1 2 3 3 4
12 12 13 14 14 14 14 14 15 15 15 15 15 14 11 9 7 7 9 10 9 10 10 10 9 8 7 7 7 6 6 5 5 4 3 2 2 2 2 3 3 2 3
12 11 11 12 12 12 12 13 14 14 15 16 16 15 14 12 11 11 11 10 7 8 11 10 9 9 7 8 7 7 8 6 5 4 4 4 3 3 3 4 3 3 4
13 12 11 12 13 14 14 14 15 14 15 16 16 16 15 14 13 12 11 10 8 8 11 10 10 8 8 8 7 7 7 7 6 5 4 4 4 3 3 3 3 3 2
12 12 12 12 13 15 16 16 16 15 15 16 16 15 14 11 9 11 9 10 9 9 10 11 10 10 9 8 8 6 6 6 6 6 6 4 4 3 3 3 3 2 2
12 11 11 12 13 14 15 16 17 15 15 16 15 14 14 13 11 10 9 8 7 8 10 11 11 10 9 9 8 6 7 6 6 6 6 4 4 3 3 3 3 3 3
9 10 10 11 12 13 13 14 15 15 13 14 14 12 13 13 11 10 10 9 10 9 11 11 11 10 9 9 8 6 6 7 6 5 6 5 4 3 3 3 3 3 4
8 8 8 9 10 11 12 13 14 13 13 14 13 12 12 12 11 10 10 10 9 10 11 11 11 10 10 9 9 8 8 8 7 6 6 6 5 4 3 3 3 3 3
6 7 7 7 8 9 11 12 12 13 13 12 12 12 11 11 11 10 10 10 9 9 10 10 10 9 9 9 9 9 8 8 8 7 7 6 4 5 4 3 4 3 3
6 5 6 7 8 8 9 9 11 11 11 11 12 12 12 11 11 10 9 9 9 9 9 9 10 9 9 9 8 8 8 8 7 7 7 6 6 5 4 4 4 3 3
6 6 6 6 7 7 8 8 8 9 10 11 11 12 12 12 11 10 9 9 9 9 9 9 9 8 8 8 7 7 7 6 6 6 6 6 6 6 5 4 4 3 2
4 5 6 6 6 6 7 7 8 8 9 10 11 11 10 10 10 10 9 9 9 8 8 8 8 8 7 7 7 7 6 6 5 5 4 5 5 5 5 3 3 3 2
3 4 5 6 7 8 8 7 7 8 9 9 9 9 10 10 10 10 9 9 8 8 8 8 8 8 6 9 11 8 6 6 6 5 4 4 4 5 5 5 5 5 4
3 4 5 6 7 8 8 9 8 8 8 9 9 10 10 10 10 10 10 9 9 8 8 8 8 7 8 11 12 10 6 5 5 5 5 3 3 4 3 4 4 4 5
2 3 3 3 4 6 7 7 8 8 9 9 9 9 10 10 10 10 10 9 8 8 8 8 8 7 8 12 12 11 6 5 5 5 5 5 4 4 4 3 2 2 2
2 2 2 2 3 6 8 8 8 8 9 9 10 10 10 11 11 11 10 8 8 8 7 7 8 7 7 12 12 11 5 4 4 4 4 4 4 4 4 3 2 1 2
2 0 1 2 3 4 7 9 9 9 10 9 9 10 10 11 11 11 9 7 8 8 7 7 7 7 7 11 12 11 5 5 4 3 3 4 4 5 5 3 3 2 2
4 2 1 2 3 4 6 7 8 9 9 8 8 9 9 10 10 9 8 9 8 8 7 7 6 6 7 10 12 11 5 5 5 4 3 3 5 5 4 3 2 2 1
3 2 0 1 2 5 6 7 7 7 8 8 8 9 9 8 9 10 9 9 9 9 8 7 6 4 5 7 9 10 8 6 5 4 3 3 5 4 3 2 0 1 1
3 2 1 1 2 4 6 7 6 7 9 9 9 9 9 8 9 10 10 9 8 8 7 7 6 5 4 6 10 10 9 7 4 3 6 6 6 4 2 1 1 1 1
3 2 1 2 3 3 4 5 6 8 10 10 9 9 9 9 8 7 7 8 8 8 7 7 7 6 5 5 5 5 5 7 5 4 5 6 5 3 2 1 1 1 1
4 3 3 4 5 4 4 5 7 9 9 10 9 9 8 9 8 6 5 6 5 8 9 8 8 8 7 7 10 7 5 5 5 5 3 2 2 1 1 1 1 1 1
4 3 4 4 4 4 5 6 7 9 10 10 10 8 8 8 8 8 6 7 7 9 9 9 8 6 8 13 12 10 10 10 10 5 3 2 2 2 2 1 0 0 0
Wind_Direction
195 189 183 180 176 174 174 174 175 178 174 175 176 178 181 178 176 176 177 176 175 173 171 171 175 169 170 175 173 166 172 181 151 115 292 277 233 207 201 191 187 192 188
197 190 184 180 180 178 178 177 178 179 179 181 179 179 175 176 176 175 183 182 181 178 179 176 177 175 174 179 182 170 165 182 165 153 157 292 310 276 217 195 201 204 197
202 192 186 184 181 182 180 181 180 180 180 174 167 166 165 168 179 186 190 189 187 183 180 182 179 180 177 183 187 178 171 178 193 178 164 176 228 269 266 225 211 209 209
206 195 188 184 183 183 179 179 179 179 179 174 176 177 181 187 190 185 185 186 190 187 184 183 184 184 182 182 187 184 178 169 187 203 204 195 180 163 274 283 243 223 221
206 199 190 185 181 177 176 178 178 179 178 178 181 183 189 189 179 177 183 189 192 193 191 188 189 187 185 185 187 185 186 181 181 183 185 215 236 206 186 253 268 265 244
205 200 190 179 177 173 172 175 177 180 179 181 184 187 189 185 181 184 186 189 190 193 195 190 190 189 187 188 190 190 188 189 189 189 181 176 182 203 199 225 244 251 253
198 196 189 182 178 175 175 176 178 182 181 183 188 191 191 190 190 187 187 185 188 193 197 192 192 191 189 189 188 190 192 190 190 193 195 195 201 192 189 206 238 252 263
193 193 190 183 180 178 178 178 181 183 183 186 191 192 190 191 193 189 186 188 190 192 189 191 192 192 189 188 188 190 191 189 192 196 192 198 209 203 196 193 204 259 271
194 193 190 184 179 177 179 181 182 184 186 187 189 191 191 192 192 188 184 185 184 182 183 187 189 191 190 189 185 189 190 187 192 195 197 202 206 203 203 197 185 194 244
192 191 188 183 179 178 176 178 182 185 184 186 188 191 192 192 190 186 187 183 182 179 181 186 188 189 190 188 185 184 187 188 193 191 197 204 203 202 201 203 204 198 210
192 187 184 178 171 168 171 176 180 182 184 186 186 186 188 186 187 187 186 182 180 179 180 183 185 187 189 186 186 190 186 191 192 188 194 202 194 197 201 200 207 214 208
183 174 168 160 157 162 169 175 178 181 183 182 181 183 181 180 184 187 183 179 178 178 178 176 179 185 186 185 187 189 187 188 191 192 193 202 193 198 197 200 212 217 211
162 154 153 156 159 161 166 173 179 179 176 174 176 177 178 180 183 182 178 176 175 173 172 172 177 182 183 184 186 186 187 190 191 190 194 197 188 202 202 201 208 217 227
157 157 159 161 162 164 166 169 173 171 168 168 171 176 179 179 178 175 174 175 172 170 169 171 174 175 176 179 180 179 180 183 185 187 189 188 190 200 196 199 209 215 227
157 163 166 165 163 165 166 166 167 165 163 166 171 175 172 168 167 169 170 170 168 167 164 164 167 169 171 175 172 173 174 176 178 179 181 182 184 190 189 191 200 200 215
176 175 169 168 170 172 170 166 166 164 161 166 170 165 163 163 165 166 163 161 162 162 161 166 166 167 167 163 164 165 169 170 173 175 175 175 178 187 199 208 208 204 206
197 192 186 180 178 176 170 169 165 158 161 165 165 163 162 163 162 159 160 163 164 159 161 164 163 164 162 159 161 164 162 166 173 173 170 168 177 178 190 209 218 226 236
223 206 192 184 176 165 158 156 154 157 161 163 165 164 162 161 157 157 162 162 157 159 162 162 161 158 158 159 160 160 160 158 167 170 167 170 177 180 174 174 201 233 242
240 205 192 181 162 159 154 151 155 158 162 168 169 167 162 160 159 161 161 155 151 153 155 156 157 157 156 158 158 155 157 156 162 160 160 165 171 176 170 171 198 239 276
335 138 140 133 144 156 150 154 163 165 171 172 169 163 161 161 162 160 153 145 145 147 145 147 153 154 153 156 158 157 157 158 157 151 153 160 164 167 166 173 183 215 251
335 355 126 151 166 155 152 163 169 177 171 160 158 157 157 158 155 148 143 142 140 140 143 142 140 145 148 156 160 162 161 162 160 160 163 168 164 162 166 170 185 222 230
334 341 345 166 160 157 160 172 181 172 153 150 151 152 152 149 146 143 143 145 145 145 145 139 135 135 142 148 158 159 154 149 154 162 159 153 152 154 162 174 228 2 48
299 287 232 192 173 170 172 180 178 154 148 148 150 149 144 144 146 148 149 148 151 151 152 151 152 147 140 145 150 155 150 140 137 136 138 139 143 146 155 148 113 87 90
284 270 235 203 200 192 190 182 162 152 151 152 151 147 146 144 143 146 151 155 159 157 156 158 157 149 145 147 151 153 146 135 128 124 128 128 131 128 126 118 129 120 138
273 247 221 216 211 196 188 170 159 153 154 153 150 147 146 145 141 136 142 152 161 164 161 165 162 161 166 168 158 154 155 151 144 131 119 119 131 134 129 106 96 84 72
268 249 231 220 209 190 182 171 164 160 157 154 153 151 148 145 141 133 109 89 116 129 134 138 142 144 147 147 150 148 143 141 141 130 140 152 158 165 162 149 105 53 65